time_stamp(utc),avg(mph),gust(mph),direction(deg),12m_air_temp(f),sonic_u(cm/s),sonic_v(cm/s),sonic_w(cm/s),pressure,2m_air_temp(f),pyranometer(W/m^2)
"2019-07-16 00:00:00+00",7.4,9.4,,76.2,23,-310,-1,1016.74,76.1,0
"2019-07-16 00:05:00+00",6.6,8.6,,76.1,33,-298,-14,1016.77,76,0
"2019-07-16 00:10:00+00",5.8,6.8,,75.8,31,-237,-4,1016.9,75.8,0
"2019-07-16 00:15:00+00",5.0,7.0,,75.6,17,-208,0,1016.9,75.6,0
"2019-07-16 00:20:00+00",4.8,5.8,,75.4,21,-207,-8,1016.92,75.3,0
"2019-07-16 00:25:00+00",5.0,6.0,,75.3,33,-201,-14,1016.97,75.1,0
"2019-07-16 00:30:00+00",5.4,7.4,,75.4,-34,-215,-3,1016.95,75.1,0
"2019-07-16 00:35:00+00",6.5,8.5,,75.7,-87,-264,-2,1017.03,75.1,0
"2019-07-16 00:40:00+00",7.8,10.8,,75.9,-101,-311,-6,1016.93,75.2,0
"2019-07-16 00:45:00+00",7.1,9.1,,76,-108,-292,11,1016.99,75.3,0
"2019-07-16 00:50:00+00",7.2,9.2,,75.9,-80,-290,-3,1016.91,75.3,0
"2019-07-16 00:55:00+00",7.7,10.7,,75.9,-92,-310,5,1016.85,75.3,0
"2019-07-16 01:00:00+00",7.1,8.1,,75.9,-97,-287,-4,1016.9,75.3,0
"2019-07-16 01:05:00+00",8.8,9.8,,76,-140,-353,-8,1016.99,75.2,0
"2019-07-16 01:10:00+00",7.8,9.8,,76,-108,-323,-3,1017.07,75.3,0
"2019-07-16 01:15:00+00",8.4,9.4,,76,-144,-332,-7,1017.13,75.2,0
"2019-07-16 01:20:00+00",7.3,8.3,,76,-179,-265,4,1017.09,75.2,0
"2019-07-16 01:25:00+00",7.5,9.5,,75.9,-99,-302,-12,1017.17,75.1,0
"2019-07-16 01:30:00+00",6.8,8.8,,75.8,-93,-274,4,1017.14,75.1,0
"2019-07-16 01:35:00+00",7.6,8.6,,75.8,-115,-298,-6,1017.2,75.1,0
"2019-07-16 01:40:00+00",6.9,8.9,,75.8,-73,-284,-6,1017.22,75.1,0
"2019-07-16 01:45:00+00",5.8,6.8,,75.7,-86,-233,-8,1017.21,75,0
"2019-07-16 01:50:00+00",7.6,7.6,,75.6,-118,-299,-7,1017.23,74.8,0
"2019-07-16 01:55:00+00",8.3,9.3,,75.7,-127,-334,-6,1017.34,74.7,0
"2019-07-16 02:00:00+00",9.3,10.3,,75.8,-147,-364,-10,1017.3,74.7,0
"2019-07-16 02:05:00+00",8.5,9.5,,76.2,-183,-319,-3,1017.38,74.7,0
"2019-07-16 02:10:00+00",8.9,8.9,,76.7,-186,-335,-5,1017.36,74.7,0
"2019-07-16 02:15:00+00",8.5,8.5,,76.6,-213,-319,-3,1017.42,74.7,0
"2019-07-16 02:20:00+00",8.8,9.8,,76.5,-228,-327,-3,1017.41,74.5,0
"2019-07-16 02:25:00+00",7.7,8.7,,76.9,-246,-253,-1,1017.52,74.4,0
"2019-07-16 02:30:00+00",7.5,8.5,,76.9,-241,-227,0,1017.49,74.3,0
"2019-07-16 02:35:00+00",7.8,8.8,,76.9,-275,-194,15,1017.49,74.3,0
"2019-07-16 02:40:00+00",7.8,8.8,,76.9,-285,-189,15,1017.59,74.2,0
"2019-07-16 02:45:00+00",6.0,7.0,,76.6,-237,-131,13,1017.68,74.2,0
"2019-07-16 02:50:00+00",6.1,6.1,,76.4,-224,-144,11,1017.72,74.1,0
"2019-07-16 02:55:00+00",6.2,7.2,,76.1,-221,-149,13,1017.74,74,0
"2019-07-16 03:00:00+00",6.2,7.2,,76.1,-220,-149,11,1017.66,73.9,0
"2019-07-16 03:05:00+00",5.7,6.7,,76,-218,-127,10,1017.72,73.8,0
"2019-07-16 03:10:00+00",6.2,6.2,,76.4,-273,-129,16,1017.68,73.6,0
"2019-07-16 03:15:00+00",6.3,7.3,,76.6,-277,-110,16,1017.66,73.3,0
"2019-07-16 03:20:00+00",6.3,7.3,,76.7,-282,-114,14,1017.69,73.2,0
"2019-07-16 03:25:00+00",7.3,8.3,,76.8,-311,-111,19,1017.63,73,0
"2019-07-16 03:30:00+00",7.5,8.5,,76.5,-333,-132,16,1017.69,72.9,0
"2019-07-16 03:35:00+00",8.2,9.2,,76.3,-335,-94,12,1017.74,72.9,0
"2019-07-16 03:40:00+00",8.8,9.8,,75.8,-360,-92,9,1017.75,73,0
"2019-07-16 03:45:00+00",8.7,9.7,,76,-366,-71,14,1017.88,73,0
"2019-07-16 03:50:00+00",8.2,9.2,,75.6,-341,-75,11,1017.88,73.1,0
"2019-07-16 03:55:00+00",8.4,9.4,,75.8,-342,-106,12,1017.72,73.1,0
"2019-07-16 04:00:00+00",8.3,10.3,,75.3,-346,-116,15,1017.76,73,0
"2019-07-16 04:05:00+00",8.3,10.3,,75,-339,-81,3,1017.65,73,0
"2019-07-16 04:10:00+00",7.5,8.5,,74.7,-324,-121,14,1017.76,73,0
"2019-07-16 04:15:00+00",7.3,8.3,,74.8,-303,-64,11,1017.8,72.9,0
"2019-07-16 04:20:00+00",6.9,7.9,,74.7,-285,-77,4,1017.76,72.8,0
"2019-07-16 04:25:00+00",9.2,10.2,,74.7,-383,-92,13,1017.73,72.7,0
"2019-07-16 04:30:00+00",8.4,9.4,,74.7,-340,-101,15,1017.72,72.6,0
"2019-07-16 04:35:00+00",7.8,8.8,,74.7,-329,-51,12,1017.87,72.6,0
"2019-07-16 04:40:00+00",8.4,8.4,,74.9,-369,-21,17,1017.94,72.7,0
"2019-07-16 04:45:00+00",9.3,11.3,,74.9,-402,1,11,1017.93,72.6,0
"2019-07-16 04:50:00+00",9.7,10.7,,75.2,-435,19,26,1017.87,72.7,0
"2019-07-16 04:55:00+00",9.8,9.8,,75.4,-434,-15,21,1017.85,72.8,0
"2019-07-16 05:00:00+00",9.5,10.5,,75.1,-406,-43,20,1017.87,72.9,0
"2019-07-16 05:05:00+00",8.8,9.8,,74.9,-373,-71,14,1017.86,72.8,0
"2019-07-16 05:10:00+00",7.8,8.8,,74.7,-333,-43,12,1017.82,72.8,0
"2019-07-16 05:15:00+00",8.3,10.3,,74.3,-333,-96,15,1017.79,72.7,0
"2019-07-16 05:20:00+00",9.4,10.4,,74.6,-383,-94,10,1017.77,72.5,0
"2019-07-16 05:25:00+00",9.9,10.9,,74.6,-422,-63,17,1017.8,72.6,0
"2019-07-16 05:30:00+00",9.5,10.5,,74.5,-405,-54,15,1017.82,72.6,0
"2019-07-16 05:35:00+00",9.5,10.5,,74.2,-410,-54,10,1017.82,72.7,0
"2019-07-16 05:40:00+00",8.4,9.4,,73.9,-347,-66,18,1017.85,72.6,0
"2019-07-16 05:45:00+00",8.9,10.9,,73.9,-387,-109,23,1017.86,72.4,0
"2019-07-16 05:50:00+00",8.0,9.0,,73.7,-331,-109,17,1017.8,72.3,0
"2019-07-16 05:55:00+00",8.4,8.4,,73.7,-334,-96,17,1017.93,72.1,0
"2019-07-16 06:00:00+00",7.9,8.9,,73.4,-326,-111,11,1017.91,71.8,0
"2019-07-16 06:05:00+00",8.0,9.0,,73.4,-342,-120,19,1017.91,71.7,0
"2019-07-16 06:10:00+00",8.4,8.4,,73.3,-343,-117,15,1017.89,71.6,0
"2019-07-16 06:15:00+00",9.4,10.4,,73.1,-390,-114,22,1017.84,71.5,0
"2019-07-16 06:20:00+00",10.7,11.7,,73.4,-442,-101,18,1017.72,71.5,0
"2019-07-16 06:25:00+00",7.9,8.9,,73.4,-326,-72,16,1017.69,71.7,0
"2019-07-16 06:30:00+00",7.2,8.2,,73.3,-301,-50,16,1017.61,71.6,0
"2019-07-16 06:35:00+00",9.0,10.0,,73.2,-375,-117,16,1017.53,71.7,0
"2019-07-16 06:40:00+00",10.2,11.2,,73.4,-425,-90,16,1017.47,71.8,0
"2019-07-16 06:45:00+00",9.7,10.7,,73.4,-406,-84,15,1017.45,71.9,0
"2019-07-16 06:50:00+00",9.8,10.8,,73.4,-413,-77,27,1017.48,72,0
"2019-07-16 06:55:00+00",9.2,11.2,,73.3,-381,-122,9,1017.41,72.1,0
"2019-07-16 07:00:00+00",11.0,13.0,,73.4,-457,-104,29,1017.36,72.2,0
"2019-07-16 07:05:00+00",9.7,10.7,,73.5,-403,-99,24,1017.42,72.3,0
"2019-07-16 07:10:00+00",10.1,12.1,,73.4,-424,-124,22,1017.4,72.3,0
"2019-07-16 07:15:00+00",9.5,11.5,,73.3,-399,-78,20,1017.5,72.4,0
"2019-07-16 07:20:00+00",9.8,10.8,,73.3,-423,-45,21,1017.47,72.4,0
"2019-07-16 07:25:00+00",9.4,11.4,,73.2,-405,-58,27,1017.43,72.4,0
"2019-07-16 07:30:00+00",10.3,12.3,,73.2,-433,-86,20,1017.37,72.3,0
"2019-07-16 07:35:00+00",11.1,13.1,,73.2,-463,-114,19,1017.33,72.3,0
"2019-07-16 07:40:00+00",11.8,13.8,,73.4,-506,-78,18,1017.33,72.3,0
"2019-07-16 07:45:00+00",8.5,9.5,,73.3,-371,-29,28,1017.37,72.4,0
"2019-07-16 07:50:00+00",8.7,10.7,,73.3,-384,-9,25,1017.36,72.4,0
"2019-07-16 07:55:00+00",8.9,10.9,,73.2,-387,3,16,1017.4,72.3,0
"2019-07-16 08:00:00+00",8.5,9.5,,73.2,-376,3,23,1017.41,72.2,0
"2019-07-16 08:05:00+00",8.6,9.6,,73.1,-382,17,26,1017.43,72.1,0
"2019-07-16 08:10:00+00",8.3,10.3,,73.1,-370,29,27,1017.35,72.1,0
"2019-07-16 08:15:00+00",9.1,10.1,,73.3,-406,38,20,1017.41,72.1,0
"2019-07-16 08:20:00+00",8.6,9.6,,73.2,-381,48,21,1017.3,72.2,0
"2019-07-16 08:25:00+00",9.6,11.6,,73.1,-419,-7,23,1017.36,72.2,0
"2019-07-16 08:30:00+00",9.0,10.0,,73.1,-394,-21,17,1017.24,72.2,0
"2019-07-16 08:35:00+00",9.7,10.7,,73.1,-403,-119,12,1017.23,72.1,0
"2019-07-16 08:40:00+00",9.3,10.3,,72.9,-386,-120,6,1017.24,72.1,0
"2019-07-16 08:45:00+00",9.7,10.7,,72.8,-399,-106,15,1017.26,71.9,0
"2019-07-16 08:50:00+00",8.9,9.9,,72.8,-374,-50,15,1017.31,71.9,0
"2019-07-16 08:55:00+00",8.0,8.0,,72.7,-336,-55,7,1017.31,71.9,0
"2019-07-16 09:00:00+00",7.3,8.3,,72.7,-317,-25,17,1017.48,71.9,0
"2019-07-16 09:05:00+00",6.2,7.2,,72.7,-262,-49,7,1017.41,71.9,0
"2019-07-16 09:10:00+00",6.4,7.4,,72.7,-269,-46,12,1017.47,71.9,0
"2019-07-16 09:15:00+00",6.6,7.6,,72.7,-284,-25,17,1017.45,71.8,0
"2019-07-16 09:20:00+00",6.1,6.1,,72.7,-267,44,21,1017.48,71.8,0
"2019-07-16 09:25:00+00",6.8,7.8,,72.7,-298,-11,23,1017.44,71.8,0
"2019-07-16 09:30:00+00",6.3,8.3,,72.6,-270,21,14,1017.52,71.7,0
"2019-07-16 09:35:00+00",7.9,8.9,,72.6,-350,33,23,1017.57,71.6,0
"2019-07-16 09:40:00+00",8.2,9.2,,72.9,-361,80,35,1017.54,71.9,0
"2019-07-16 09:45:00+00",8.8,9.8,,73.1,-393,79,31,1017.63,72,0
"2019-07-16 09:50:00+00",9.5,10.5,,73.1,-423,27,18,1017.75,72,0
"2019-07-16 09:55:00+00",7.7,8.7,,73,-335,-13,11,1017.77,72.1,0
"2019-07-16 10:00:00+00",7.1,8.1,,72.9,-317,33,21,1017.85,72.1,0
"2019-07-16 10:05:00+00",7.9,8.9,,72.8,-351,50,11,1017.91,72.1,0
"2019-07-16 10:10:00+00",7.9,8.9,,72.8,-354,43,34,1017.93,72.1,0
"2019-07-16 10:15:00+00",9.6,10.6,,72.9,-410,129,33,1017.94,72.3,0
"2019-07-16 10:20:00+00",10.5,11.5,,73,-456,112,28,1017.98,72.3,0
"2019-07-16 10:25:00+00",10.4,11.4,,73.2,-471,46,24,1018.1,72.5,0.1
"2019-07-16 10:30:00+00",9.4,9.4,,73.2,-417,0,18,1018.19,72.6,3.8
"2019-07-16 10:35:00+00",7.8,8.8,,73.1,-346,-6,19,1018.2,72.8,0.9
"2019-07-16 10:40:00+00",7.8,8.8,,73.1,-338,-36,15,1018.23,72.9,1.5
"2019-07-16 10:45:00+00",8.0,8.0,,73.2,-356,12,16,1018.29,73,15.5
"2019-07-16 10:50:00+00",7.3,8.3,,73.3,-323,46,24,1018.29,73.3,40.2
"2019-07-16 10:55:00+00",7.9,8.9,,73.4,-342,73,31,1018.38,73.6,24.8
"2019-07-16 11:00:00+00",8.3,10.3,,73.4,-375,29,25,1018.34,73.8,32.2
"2019-07-16 11:05:00+00",10.1,11.1,,73.5,-453,54,32,1018.43,74,35.2
"2019-07-16 11:10:00+00",9.2,11.2,,73.5,-400,108,27,1018.55,74.2,43.8
"2019-07-16 11:15:00+00",10.2,11.2,,73.6,-448,96,40,1018.59,74.3,62
"2019-07-16 11:20:00+00",8.7,9.7,,73.7,-381,86,22,1018.75,74.6,73.5
"2019-07-16 11:25:00+00",8.6,9.6,,73.7,-368,110,23,1018.87,74.9,98.7
"2019-07-16 11:30:00+00",6.8,7.8,,73.8,-286,122,55,1018.95,75.2,116.9
"2019-07-16 11:35:00+00",6.7,7.7,,73.8,-271,117,31,1019.01,75.7,116.6
"2019-07-16 11:40:00+00",5.4,6.4,,73.9,-231,49,27,1018.89,76.1,129.8
"2019-07-16 11:45:00+00",6.1,6.1,,74,-250,103,13,1018.87,76.6,142.9
"2019-07-16 11:50:00+00",6.2,7.2,,74.2,-263,92,10,1018.9,77,164.6
"2019-07-16 11:55:00+00",6.4,7.4,,74.4,-275,75,21,1018.86,77.6,197.9
"2019-07-16 12:00:00+00",5.0,6.0,,74.7,-224,8,6,1018.8,78.3,205.1
"2019-07-16 12:05:00+00",4.9,5.9,,75.2,-209,-31,8,1018.85,79.1,169.9
"2019-07-16 12:10:00+00",4.8,4.8,,75.6,-190,-98,12,1018.84,80,134.1
"2019-07-16 12:15:00+00",6.4,7.4,,75.8,-269,-54,16,1018.82,80.2,109.8
"2019-07-16 12:20:00+00",5.6,6.6,,76,-251,15,31,1018.81,80.5,139.8
"2019-07-16 12:25:00+00",5.3,5.3,,76.3,-224,-40,30,1018.84,81.1,210.2
"2019-07-16 12:30:00+00",6.5,7.5,,76.5,-284,-101,1,1018.78,82,227.2
"2019-07-16 12:35:00+00",7.3,8.3,,76.7,-300,-82,4,1018.76,82.8,234.4
"2019-07-16 12:40:00+00",8.6,10.6,,77.1,-360,-109,10,1018.88,83.4,244.6
"2019-07-16 12:45:00+00",7.3,8.3,,77.5,-307,-67,12,1018.95,83.9,253.4
"2019-07-16 12:50:00+00",7.7,8.7,,77.8,-339,18,11,1018.86,84.6,255.4
"2019-07-16 12:55:00+00",6.3,7.3,,78,-263,-52,38,1019.03,85.1,268.4
"2019-07-16 13:00:00+00",8.0,10.0,,78.1,-331,-96,4,1019,85.3,277.8
"2019-07-16 13:05:00+00",8.3,9.3,,78.4,-357,-48,17,1019.02,85.5,272.8
"2019-07-16 13:10:00+00",8.0,9.0,,78.5,-334,-98,26,1019,85.7,292.7
"2019-07-16 13:15:00+00",7.7,8.7,,78.8,-319,-60,13,1019.02,86.2,299.9
"2019-07-16 13:20:00+00",6.9,7.9,,79,-282,-146,17,1019.1,86.8,310.5
"2019-07-16 13:25:00+00",6.8,7.8,,79.1,-284,-86,30,1019.05,86.9,319.4
"2019-07-16 13:30:00+00",6.4,8.4,,79.2,-282,-101,-6,1019.12,87.1,331.2
"2019-07-16 13:35:00+00",7.1,9.1,,79.3,-303,-142,17,1019.25,87.3,339
"2019-07-16 13:40:00+00",5.9,7.9,,79.6,-239,-125,7,1019.21,87.4,348.8
"2019-07-16 13:45:00+00",6.6,8.6,,79.7,-252,-144,16,1019.16,87.5,356.8
"2019-07-16 13:50:00+00",6.2,7.2,,79.9,-191,-209,19,1019.17,87.8,360.7
"2019-07-16 13:55:00+00",6.7,7.7,,79.9,-176,-244,-3,1019.19,86.6,368.9
"2019-07-16 14:00:00+00",7.3,8.3,,80.1,-168,-273,-7,1019.17,85.9,380.3
"2019-07-16 14:05:00+00",6.7,8.7,,80.4,-183,-230,6,1019.14,86,394.3
"2019-07-16 14:10:00+00",7.4,9.4,,80.7,-234,-228,-8,1019.06,86.2,406.5
"2019-07-16 14:15:00+00",8.6,9.6,,80.6,-307,-218,23,1019.08,86.8,415.5
"2019-07-16 14:20:00+00",7.8,9.8,,80.8,-236,-254,7,1019.05,87,425.6
"2019-07-16 14:25:00+00",6.4,8.4,,81,-161,-230,8,1018.99,87.4,428.7
"2019-07-16 14:30:00+00",7.5,8.5,,81.2,-226,-254,33,1019.11,87.5,434.1
"2019-07-16 14:35:00+00",5.9,7.9,,81.2,-160,-204,-5,1019.09,87.7,447.5
"2019-07-16 14:40:00+00",6.5,8.5,,81.6,-167,-230,11,1019.12,86.6,455.8
"2019-07-16 14:45:00+00",7.9,8.9,,81.8,-214,-279,-9,1019.13,86.3,463.5
"2019-07-16 14:50:00+00",6.2,8.2,,82,-76,-245,-1,1019.09,85.5,469.1
"2019-07-16 14:55:00+00",8.0,10.0,,82,54,-326,5,1019.07,84.9,473.8
"2019-07-16 15:00:00+00",9.4,11.4,,81.7,127,-386,-12,1019.04,84.1,477.7
"2019-07-16 15:05:00+00",8.3,10.3,,81.6,70,-355,-8,1019.02,83.7,480.4
"2019-07-16 15:10:00+00",8.8,10.8,,81.2,50,-371,-6,1019.03,83.2,482.8
"2019-07-16 15:15:00+00",9.9,10.9,,81.2,106,-419,-22,1019.01,83.3,487.9
"2019-07-16 15:20:00+00",7.8,9.8,,81.5,73,-332,-4,1019.06,83.7,488
"2019-07-16 15:25:00+00",9.1,11.1,,80.8,115,-374,-10,1018.97,83.1,489.8
"2019-07-16 15:30:00+00",7.8,9.8,,80.3,92,-313,-8,1019.04,82.6,488.5
"2019-07-16 15:35:00+00",9.6,11.6,,80.9,37,-409,-26,1019.06,82.9,493.6
"2019-07-16 15:40:00+00",9.7,11.7,,81.2,12,-403,-32,1019.02,83,497.6
"2019-07-16 15:45:00+00",8.6,10.6,,81.2,67,-348,-9,1019.01,83,496.7
"2019-07-16 15:50:00+00",8.1,10.1,,81.4,63,-334,-6,1018.95,83.3,499.4
"2019-07-16 15:55:00+00",9.0,13.0,,81.8,33,-373,16,1018.88,83.8,500.1
"2019-07-16 16:00:00+00",10.4,12.4,,81.6,87,-431,-18,1018.82,83.7,501.3
"2019-07-16 16:05:00+00",10.1,13.1,,81.9,50,-414,7,1018.81,84,502.7
"2019-07-16 16:10:00+00",11.4,13.4,,81.9,47,-481,-24,1018.7,83.7,504.5
"2019-07-16 16:15:00+00",9.4,13.4,,82.2,63,-386,12,1018.73,84.2,503
"2019-07-16 16:20:00+00",9.1,12.1,,82.3,61,-374,2,1018.59,84.4,503.8
"2019-07-16 16:25:00+00",9.4,13.4,,81.7,44,-410,-5,1018.64,83.8,505.8
"2019-07-16 16:30:00+00",10.7,12.7,,81.7,75,-447,-10,1018.59,83.9,507.4
"2019-07-16 16:35:00+00",11.4,14.4,,81.9,148,-465,-1,1018.5,84,506.4
"2019-07-16 16:40:00+00",10.2,14.2,,81.7,79,-422,12,1018.48,84,506.4
"2019-07-16 16:45:00+00",9.0,12.0,,81.8,20,-378,-20,1018.49,83.7,506.7
"2019-07-16 16:50:00+00",7.9,10.9,,81.9,29,-329,12,1018.38,83.9,509.4
"2019-07-16 16:55:00+00",10.0,12.0,,82.3,43,-428,-20,1018.3,84.1,443.5
"2019-07-16 17:00:00+00",9.9,12.9,,82.3,61,-408,-5,1018.17,84.5,506.4
"2019-07-16 17:05:00+00",9.6,12.6,,82.4,12,-412,-5,1018.06,84.2,500.3
"2019-07-16 17:10:00+00",11.3,14.3,,82.1,116,-472,-12,1017.97,84,511.7
"2019-07-16 17:15:00+00",8.5,11.5,,83.1,-42,-362,0,1017.98,84.7,512
"2019-07-16 17:20:00+00",12.2,15.2,,82.6,97,-494,-9,1017.91,84.6,508.5
"2019-07-16 17:25:00+00",9.6,13.6,,83,8,-398,4,1017.89,85,508.3
"2019-07-16 17:30:00+00",12.1,15.1,,83.7,31,-507,0,1017.84,85.2,507.8
"2019-07-16 17:35:00+00",8.2,12.2,,84.3,-37,-339,25,1017.86,85.5,510.1
"2019-07-16 17:40:00+00",12.5,16.5,,83.5,-59,-512,-11,1017.82,85.1,507.9
"2019-07-16 17:45:00+00",13.8,16.8,,84.1,13,-582,-28,1017.81,85.5,507.9
"2019-07-16 17:50:00+00",11.0,16.0,,84.3,-101,-445,4,1017.78,85.9,506.6
"2019-07-16 17:55:00+00",9.1,12.1,,84.6,-14,-373,19,1017.77,86,505.8
"2019-07-16 18:00:00+00",10.6,15.6,,85,-70,-442,21,1017.79,86.5,503.5
"2019-07-16 18:05:00+00",11.3,14.3,,84.7,-82,-471,16,1017.75,86.2,503.6
"2019-07-16 18:10:00+00",8.9,12.9,,84.8,-37,-362,28,1017.72,86.4,495.3
"2019-07-16 18:15:00+00",13.5,16.5,,84.6,-153,-567,4,1017.76,86.2,495.7
"2019-07-16 18:20:00+00",13.0,18.0,,84.3,-108,-533,-16,1017.73,86,494
"2019-07-16 18:25:00+00",14.0,19.0,,84.1,-130,-581,-10,1017.69,85.8,491.8
"2019-07-16 18:30:00+00",14.4,18.4,,84.6,-167,-601,-21,1017.65,86.1,487.5
"2019-07-16 18:35:00+00",13.7,17.7,,84.5,-118,-583,-13,1017.69,86.1,487.4
"2019-07-16 18:40:00+00",12.9,18.9,,84.6,-94,-540,4,1017.62,86.2,481.2
"2019-07-16 18:45:00+00",11.8,16.8,,84.6,-118,-488,8,1017.56,86.1,477.2
"2019-07-16 18:50:00+00",13.0,17.0,,84.7,-131,-540,11,1017.57,86.3,474.1
"2019-07-16 18:55:00+00",14.5,18.5,,84.5,-124,-604,-7,1017.46,86.2,468.6
"2019-07-16 19:00:00+00",15.1,19.1,,84.4,-255,-616,8,1017.46,86.1,463.6
"2019-07-16 19:05:00+00",12.4,17.4,,84.2,-168,-506,3,1017.42,86,455.9
"2019-07-16 19:10:00+00",15.2,19.2,,84.3,-185,-616,10,1017.37,86,446.7
"2019-07-16 19:15:00+00",14.0,18.0,,83.9,-119,-591,-17,1017.3,85.8,441.9
"2019-07-16 19:20:00+00",13.4,19.4,,83.8,-160,-551,7,1017.33,85.5,437.3
"2019-07-16 19:25:00+00",11.8,18.8,,83.7,-77,-497,-3,1017.34,85.4,427.1
"2019-07-16 19:30:00+00",14.9,17.9,,83.4,-155,-620,-27,1017.36,85.1,422.6
"2019-07-16 19:35:00+00",14.7,17.7,,83.5,-129,-610,-20,1017.34,85.1,415
"2019-07-16 19:40:00+00",14.4,18.4,,83.6,-207,-587,-14,1017.28,85.3,406.5
"2019-07-16 19:45:00+00",14.9,18.9,,83.5,-116,-619,-22,1017.31,84.9,401.3
"2019-07-16 19:50:00+00",15.5,19.5,,83.5,-214,-643,-1,1017.22,85.1,391.2
"2019-07-16 19:55:00+00",14.9,19.9,,83.3,-125,-614,-9,1017.09,85,376
"2019-07-16 20:00:00+00",12.7,16.7,,83.3,-167,-526,28,1016.96,84.8,362
"2019-07-16 20:05:00+00",13.4,17.4,,82.7,-127,-559,-13,1016.87,84.3,356.4
"2019-07-16 20:10:00+00",11.9,15.9,,82.7,-82,-491,5,1016.9,84.1,353.8
"2019-07-16 20:15:00+00",15.6,20.6,,82.5,-154,-663,-14,1016.91,84.1,345.1
"2019-07-16 20:20:00+00",12.5,17.5,,82.8,-75,-521,31,1016.76,84.1,333
"2019-07-16 20:25:00+00",11.5,15.5,,82.8,-69,-473,-18,1016.83,84.1,323.3
"2019-07-16 20:30:00+00",13.1,20.1,,82.7,-158,-571,-9,1016.82,84,309.4
"2019-07-16 20:35:00+00",13.2,16.2,,82.8,-98,-558,2,1016.84,84,280.8
"2019-07-16 20:40:00+00",12.7,17.7,,83,-128,-538,30,1016.94,84.2,280.1
"2019-07-16 20:45:00+00",12.4,17.4,,82.9,-45,-497,22,1016.93,84.2,179.3
"2019-07-16 20:50:00+00",13.4,16.4,,82.6,-143,-566,-14,1016.85,84.1,27.3
"2019-07-16 20:55:00+00",13.8,18.8,,83,-206,-578,12,1016.86,84.3,25.9
"2019-07-16 21:00:00+00",16.0,20.0,,82.8,-217,-655,-6,1016.8,84.2,24
"2019-07-16 21:05:00+00",16.4,20.4,,82.8,-229,-669,-8,1016.95,84.2,165.8
"2019-07-16 21:10:00+00",13.9,18.9,,83,-162,-569,13,1016.97,84.4,232.6
"2019-07-16 21:15:00+00",13.4,17.4,,82.9,-171,-543,9,1016.89,84.2,225.3
"2019-07-16 21:20:00+00",16.7,22.7,,83.1,-198,-690,12,1016.92,84.3,192.1
"2019-07-16 21:25:00+00",18.7,22.7,,82.9,-314,-748,-4,1016.9,84.1,201.6
"2019-07-16 21:30:00+00",15.0,21.0,,82.8,-168,-624,-11,1016.8,84,190.7
"2019-07-16 21:35:00+00",15.2,21.2,,82.6,-181,-639,-13,1016.72,83.7,172.7
"2019-07-16 21:40:00+00",16.8,22.8,,82.2,-198,-687,-24,1016.77,83.3,166
"2019-07-16 21:45:00+00",15.4,20.4,,82.1,-180,-642,6,1016.82,83.1,174.4
"2019-07-16 21:50:00+00",15.1,21.1,,82.3,-203,-626,-3,1016.79,83.2,151.8
"2019-07-16 21:55:00+00",14.7,19.7,,82.1,-193,-594,22,1016.81,83,125.4
"2019-07-16 22:00:00+00",15.6,20.6,,81.9,-205,-646,-14,1016.84,82.8,139.4
"2019-07-16 22:05:00+00",15.5,22.5,,81.7,-237,-628,-10,1016.77,82.6,148.2
"2019-07-16 22:10:00+00",15.8,20.8,,81.8,-265,-640,-9,1016.67,82.7,136.4
"2019-07-16 22:15:00+00",15.4,20.4,,81.5,-173,-635,-24,1016.72,82.3,103
"2019-07-16 22:20:00+00",14.9,18.9,,81.1,-205,-618,6,1016.69,81.9,104.3
"2019-07-16 22:25:00+00",14.2,18.2,,81,-189,-578,4,1016.81,81.7,100.7
"2019-07-16 22:30:00+00",18.1,24.1,,80.9,-305,-737,-26,1016.86,81.5,92.9
"2019-07-16 22:35:00+00",18.1,21.1,,80.7,-253,-735,-25,1016.85,81.4,87.1
"2019-07-16 22:40:00+00",16.7,21.7,,80.6,-216,-686,-4,1016.78,81.2,78.6
"2019-07-16 22:45:00+00",14.6,18.6,,80.7,-289,-574,6,1016.84,81.2,56.6
"2019-07-16 22:50:00+00",17.1,20.1,,80.6,-345,-666,0,1016.88,81.1,50
"2019-07-16 22:55:00+00",18.3,22.3,,80.4,-247,-740,-9,1016.9,80.8,42.6
"2019-07-16 23:00:00+00",15.5,19.5,,80.4,-239,-622,-10,1016.85,80.7,27.7
"2019-07-16 23:05:00+00",13.8,16.8,,80.3,-213,-572,-5,1016.97,80.6,33
"2019-07-16 23:10:00+00",13.0,17.0,,80.2,-186,-531,-5,1017,80.5,35.1
"2019-07-16 23:15:00+00",11.7,14.7,,80.2,-162,-482,-5,1017,80.5,32.9
"2019-07-16 23:20:00+00",13.0,17.0,,80.1,-187,-534,0,1017.04,80.4,22
"2019-07-16 23:25:00+00",14.5,16.5,,80,-261,-572,0,1017.09,80.3,12
"2019-07-16 23:30:00+00",13.1,17.1,,79.8,-265,-515,-7,1017.22,80.1,9.2
"2019-07-16 23:35:00+00",14.9,16.9,,79.8,-267,-587,-4,1017.19,79.9,7.6
"2019-07-16 23:40:00+00",13.9,17.9,,79.8,-196,-576,-10,1017.01,79.9,2.9
"2019-07-16 23:45:00+00",13.6,21.6,,79.7,-185,-551,-5,1016.84,79.7,1.6
"2019-07-16 23:50:00+00",11.9,14.9,,79.5,-197,-479,22,1016.91,79.6,0
"2019-07-16 23:55:00+00",13.1,16.1,,79.3,-229,-519,-5,1016.98,79.4,0
